Location: Summit Observatory
(39.5293°N, 75.7290°W)
Time: 08:32:46
(UTC-04:00)

Amateur Radio Satellites - All Passes

Search period start: 02 July 2015 08:02
Search period end: 03 July 2015 08:02
Location: Summit Observatory, 39.5293°N, 75.7290°W

Satellite Date Start Highest point End Downlink Frequencies (MHz)
Time Altitude Azimuth
BEESAT 2 02 Jul 08:03:28 08:07:19 42° 116° (ESE) 08:11:16 435.950
BRITE-PL 02 Jul 08:10:13 08:13:27 21° 92° (E) 08:16:40 437.365/2234.400
PRISM 02 Jul 08:14:05 08:17:14 20° 266° (W) 08:20:19 437.425
STRAND 1 02 Jul 08:17:06 08:21:21 25° 266° (W) 08:25:30 437.568
VERMONT LUNAR 02 Jul 08:38:11 08:40:51 26° 153° (SSE) 08:43:33 437.305
COMPASS 1 02 Jul 08:52:17 08:53:51 12° 89° (E) 08:55:40 437.405
CUTE 1.7 + AOD 2 02 Jul 08:52:25 08:55:31 20° 93° (E) 08:58:44 437.475
CANX-2 02 Jul 08:55:06 08:58:32 24° 94° (E) 09:02:03 2200.000
DOVE 4 02 Jul 08:56:12 08:59:29 23° 94° (E) 09:02:52 437.250
AUBIESAT-1 02 Jul 08:56:56 09:00:10 54° 254° (WSW) 09:03:30 437.475
CUSAT 1 02 Jul 08:59:17 09:06:13 65° 280° (W) 09:11:32 437.405
AIST 2 02 Jul 09:04:17 09:08:21 47° 117° (ESE) 09:12:29 435.215
HO-68 02 Jul 09:06:05 09:12:37 38° 97° (E) 09:19:14 435.675
CUTE-I 02 Jul 09:09:44 09:12:23 13° 299° (WNW) 09:14:45 437.470
RS-15 02 Jul 09:10:03 09:18:17 22° 19° (NNE) 09:27:02 29.354- 29.394
GONETS M04 02 Jul 09:28:36 09:37:10 61° 92° (E) 09:45:45
M-CUBED/EXP-1 PRIME 02 Jul 09:29:58 09:32:11 16° 262° (W) 09:34:20 437.505
CUBEBUG 2 02 Jul 09:31:42 09:33:13 12° 90° (E) 09:34:59 437.445
O/OREOS (USA 219) 02 Jul 09:32:15 09:35:37 20° 303° (WNW) 09:38:53 437.305
BEESAT 3 02 Jul 09:34:10 09:37:09 19° 314° (NW) 09:40:04 437.485
ISS 02 Jul 09:34:55 09:38:10 79° 321° (NW) 09:41:25 145.825
GOMX 1 02 Jul 09:36:31 09:40:45 68° 283° (WNW) 09:44:51 467.674
BEESAT 2 02 Jul 09:42:32 09:45:36 19° 314° (NW) 09:48:37 435.950
SEEDS 02 Jul 09:44:08 09:48:22 63° 100° (E) 09:52:35 437.485
DANDE 02 Jul 09:44:44 09:51:51 41° 284° (WNW) 09:57:27 436.750
ZACube-1 02 Jul 09:46:28 09:46:54 10° 88° (E) 09:47:38 437.345
BRITE-PL 02 Jul 09:48:16 09:52:07 30° 290° (WNW) 09:55:44 437.365/2234.400
UNISAT 6 02 Jul 09:49:04 09:51:53 18° 68° (ENE) 09:54:49 437.425
PHONESAT 2.4 02 Jul 09:55:26 09:58:11 23° 151° (SSE) 10:00:59 2401.200-2431.200
Oscar 11 02 Jul 09:58:33 10:02:13 27° 95° (E) 10:05:56 145.826/435.025
CINEMA 3 02 Jul 10:00:31 10:04:37 57° 100° (E) 10:08:47 145.822/145.860
AAUSAT CUBESAT 2 02 Jul 10:01:51 10:06:04 68° 101° (ESE) 10:10:15 437.432
VERMONT LUNAR 02 Jul 10:14:27 10:17:36 89° 139° (SE) 10:20:45 437.305
FUNcube-1 02 Jul 10:21:09 10:24:41 26° 95° (E) 10:28:20 145.935
BUGSAT 1 02 Jul 10:24:29 10:25:44 11° 65° (ENE) 10:27:11 437.445
HUMSAT D 02 Jul 10:25:35 10:27:13 12° 90° (E) 10:29:05 437.325/437.525
COMPASS 1 02 Jul 10:25:47 10:29:54 52° 286° (WNW) 10:34:01 437.405
QB50P2 02 Jul 10:25:55 10:28:51 19° 68° (ENE) 10:31:56 145.880/145.840
UWE-3 02 Jul 10:26:19 10:30:17 40° 98° (E) 10:34:20 435.000/436.395/437.385
POPSAT HIP 1 02 Jul 10:27:19 10:30:16 19° 68° (ENE) 10:33:20 437.405
CUTE 1.7 + AOD 2 02 Jul 10:27:40 10:31:31 33° 288° (WNW) 10:35:21 437.475
CANX-2 02 Jul 10:30:46 10:34:27 28° 290° (WNW) 10:38:04 2200.000
ANTELSAT 02 Jul 10:31:59 10:36:10 52° 74° (ENE) 10:40:21 437.575/2403.000
DOVE 4 02 Jul 10:33:48 10:37:17 25° 290° (WNW) 10:40:40 437.250
DELFI C3 02 Jul 10:35:23 10:39:20 48° 99° (E) 10:43:17 145.870
AIST 2 02 Jul 10:44:05 10:47:12 19° 315° (NW) 10:50:15 435.215
TIGRISAT 02 Jul 10:45:24 10:49:42 73° 75° (ENE) 10:53:58 435.000
HO-68 02 Jul 10:53:48 11:00:23 40° 294° (WNW) 11:06:53 435.675
50 SAT 02 Jul 10:57:50 10:59:46 14° 91° (E) 11:01:52 437.505
QB50P1 02 Jul 11:05:19 11:09:25 50° 74° (ENE) 11:13:34 145.935-145.965
CUBEBUG 2 02 Jul 11:06:12 11:10:17 52° 286° (WNW) 11:14:26 437.445
DX 1 02 Jul 11:06:24 11:10:13 30° 96° (E) 11:14:04 434.975-435.025
ISS 02 Jul 11:12:52 11:15:00 16° 341° (NNW) 11:17:06 145.825
ZACube-1 02 Jul 11:19:35 11:23:44 61° 285° (WNW) 11:27:56 437.345
NANOSAT C BR1 02 Jul 11:20:25 11:24:39 76° 75° (ENE) 11:28:53 145.865
SEEDS 02 Jul 11:22:12 11:23:41 11° 295° (WNW) 11:24:58 437.485
RS-15 02 Jul 11:22:54 11:34:16 55° 49° (NE) 11:46:09 29.354- 29.394
UNISAT 6 02 Jul 11:24:23 11:28:26 38° 262° (W) 11:32:26 437.425
Cosmos 2499 02 Jul 11:25:50 11:32:50 70° 94° (E) 11:39:54 435.465 / 435.565
GONETS M04 02 Jul 11:27:11 11:34:39 29° 293° (WNW) 11:41:51
DUCHIFAT 1 02 Jul 11:28:15 11:32:30 90° 250° (WSW) 11:36:45 145.980
POLYITAN 1 02 Jul 11:30:02 11:34:18 81° 256° (WSW) 11:38:34 437.675
UKube-1 02 Jul 11:30:56 11:35:10 52° 100° (E) 11:39:23 .
PHONESAT 2.4 02 Jul 11:32:29 11:35:56 79° 166° (SSE) 11:39:24 2401.200-2431.200
AISAT 02 Jul 11:33:16 11:37:15 33° 97° (E) 11:41:16 437.250
Oscar 11 02 Jul 11:34:42 11:38:20 25° 290° (WNW) 11:41:52 145.826/435.025
CINEMA 3 02 Jul 11:39:53 11:41:26 12° 294° (WNW) 11:42:46 145.822/145.860
AAUSAT CUBESAT 2 02 Jul 11:40:16 11:41:09 10° 295° (WNW) 11:41:49 437.432
VERMONT LUNAR 02 Jul 11:51:27 11:54:36 76° 5° (N) 11:57:47 437.305
ESTCUBE 1 02 Jul 11:56:01 12:00:15 38° 97° (E) 12:04:30 437.505/2401.250
BUGSAT 1 02 Jul 11:56:31 12:00:43 64° 258° (WSW) 12:04:56 437.445
FUNcube-1 02 Jul 11:57:31 12:00:56 24° 290° (WNW) 12:04:19 145.935
CUBEBUG 1 02 Jul 11:59:13 12:03:11 34° 97° (E) 12:07:09 437.445
HUMSAT D 02 Jul 11:59:17 12:03:18 50° 286° (WNW) 12:07:21 437.325/437.525
QB50P2 02 Jul 12:00:36 12:04:32 35° 263° (W) 12:08:26 145.880/145.840
POPSAT HIP 1 02 Jul 12:02:00 12:05:56 35° 263° (W) 12:09:49 437.405
UWE-3 02 Jul 12:03:52 12:06:33 16° 292° (WNW) 12:09:08 435.000/436.395/437.385
ANTELSAT 02 Jul 12:11:24 12:13:20 12° 270° (W) 12:15:02 437.575/2403.000
DELFI C3 02 Jul 12:11:59 12:14:03 13° 294° (WNW) 12:15:55 145.870
VELOX 1 02 Jul 12:23:08 12:27:33 68° 285° (WNW) 12:31:54 145.980
TISAT 1 02 Jul 12:28:18 12:29:57 12° 90° (E) 12:31:50 437.305
50 SAT 02 Jul 12:30:57 12:34:36 39° 287° (WNW) 12:38:16 437.505
DX 1 02 Jul 12:42:52 12:46:20 23° 292° (WNW) 12:49:42 434.975-435.025
QB50P1 02 Jul 12:43:36 12:45:39 13° 270° (W) 12:47:28 145.935-145.965
Oscar 19 02 Jul 13:05:28 13:10:10 38° 70° (ENE) 13:14:55 437.125/150
UKube-1 02 Jul 13:08:33 13:10:54 14° 295° (WNW) 13:13:03 .
AISAT 02 Jul 13:10:16 13:13:40 21° 292° (WNW) 13:16:55 437.250
SPROUT 02 Jul 13:10:31 13:14:47 62° 101° (E) 13:19:00 437.525
PHONESAT 2.4 02 Jul 13:10:34 13:14:02 74° 3° (N) 13:17:31 2401.200-2431.200
YUBILEINY 02 Jul 13:10:44 13:14:00 13° 56° (NE) 13:17:57 435.215
ITAMSAT 1 02 Jul 13:14:15 13:16:37 14° 62° (ENE) 13:19:16 435.822/435.867
Cosmos 2499 02 Jul 13:21:52 13:26:50 19° 295° (WNW) 13:31:30 435.465 / 435.565
VERMONT LUNAR 02 Jul 13:28:27 13:31:29 42° 202° (SSW) 13:34:31 437.305
ESTCUBE 1 02 Jul 13:33:32 13:36:53 20° 293° (WNW) 13:40:07 437.505/2401.250
RS-15 02 Jul 13:35:40 13:46:44 47° 249° (WSW) 13:57:57 29.354- 29.394
SWISSCUBE 02 Jul 13:35:56 13:38:09 13° 89° (E) 13:40:39 437.505
CUBEBUG 1 02 Jul 13:36:04 13:39:20 20° 292° (WNW) 13:42:29 437.445
ITUPSAT 1 02 Jul 13:40:04 13:42:15 13° 89° (E) 13:44:42 437.325
TISAT 1 02 Jul 14:02:01 14:06:06 50° 286° (WNW) 14:10:08 437.305
ISS 02 Jul 14:27:37 14:29:54 18° 21° (NNE) 14:32:13 145.825
Gurwin Techsat 1B 02 Jul 14:30:20 14:35:36 71° 74° (ENE) 14:40:56 435.225
Oscar 19 02 Jul 14:45:28 14:49:39 24° 266° (W) 14:53:45 437.125/150
PHONESAT 2.4 02 Jul 14:48:38 14:52:02 55° 200° (SSW) 14:55:28 2401.200-2431.200
SPROUT 02 Jul 14:48:46 14:50:23 12° 295° (WNW) 14:51:47 437.525
ITAMSAT 1 02 Jul 14:50:19 14:55:32 78° 257° (WSW) 15:00:48 435.822/435.867
BEESAT 02 Jul 14:56:26 15:01:16 87° 108° (ESE) 15:06:03 436.000
AO-7 02 Jul 15:01:01 15:08:19 37° 61° (ENE) 15:15:48 29.400- 29.500
YUBILEINY 02 Jul 15:04:10 15:12:54 69° 79° (E) 15:21:40 435.215
AIST 1 02 Jul 15:05:12 15:05:53 10° 85° (E) 15:06:52
HORYU 2 02 Jul 15:10:35 15:13:59 23° 68° (ENE) 15:17:29 437.375
SWISSCUBE 02 Jul 15:11:44 15:16:29 60° 286° (WNW) 15:21:12 437.505
KKS-1 02 Jul 15:12:31 15:15:48 21° 93° (E) 15:19:12 437.445
ITUPSAT 1 02 Jul 15:15:52 15:20:39 61° 286° (WNW) 15:25:22 437.325
Cosmos 2491 02 Jul 15:23:05 15:31:21 49° 90° (E) 15:39:44 435.465 / 435.565
PCSat 02 Jul 15:39:38 15:43:53 25° 108° (ESE) 15:48:18 145.827
JAS-2 02 Jul 15:40:57 15:46:06 76° 75° (ENE) 15:51:26 435.910
ISS 02 Jul 16:03:24 16:06:39 81° 221° (SW) 16:09:53 145.825
STARS 02 Jul 16:09:39 16:13:56 54° 100° (E) 16:18:13 437.465
Gurwin Techsat 1B 02 Jul 16:13:31 16:16:13 13° 272° (W) 16:18:37 435.225
BEESAT 3 02 Jul 16:14:48 16:18:00 22° 47° (NE) 16:21:13 437.485
BEESAT 2 02 Jul 16:23:43 16:26:55 22° 47° (NE) 16:30:08 435.950
PHONESAT 2.4 02 Jul 16:27:45 16:29:39 14° 213° (SSW) 16:31:28 2401.200-2431.200
BEESAT 02 Jul 16:37:23 16:38:29 11° 298° (WNW) 16:39:16 436.000
AIST 1 02 Jul 16:38:42 16:43:02 61° 280° (W) 16:47:26
HORYU 2 02 Jul 16:46:31 16:50:29 31° 263° (W) 16:54:25 437.375
KKS-1 02 Jul 16:48:32 16:52:33 33° 289° (WNW) 16:56:30 437.445
MOZHAYETS 4 02 Jul 16:49:24 16:53:09 24° 93° (E) 16:56:59
AO-7 02 Jul 16:52:51 17:00:55 51° 259° (W) 17:08:59 29.400- 29.500
Cosmos 2504 02 Jul 16:58:31 17:05:43 43° 75° (ENE) 17:13:29 435.465 / 435.565
YUBILEINY 02 Jul 17:02:23 17:09:03 24° 277° (W) 17:15:22 435.215
CUTE-I 02 Jul 17:11:16 17:14:18 16° 63° (ENE) 17:17:34 437.470
Cosmos 2491 02 Jul 17:20:28 17:28:29 36° 289° (WNW) 17:36:22 435.465 / 435.565
PCSat 02 Jul 17:21:55 17:27:05 44° 305° (NW) 17:32:16 145.827
AIST 2 02 Jul 17:27:06 17:30:37 25° 48° (NE) 17:34:07 435.215
JAS-2 02 Jul 17:30:58 17:32:08 10° 274° (W) 17:32:55 435.910
Cubesat XI-IV 02 Jul 17:42:56 17:47:32 31° 68° (ENE) 17:52:15 437.490
STARS 02 Jul 17:47:38 17:49:59 14° 295° (WNW) 17:52:08 437.465
SO-50 02 Jul 17:50:07 17:54:50 89° 116° (ESE) 17:59:44 436.795
BEESAT 3 02 Jul 17:52:21 17:56:03 34° 245° (WSW) 17:59:39 437.485
BEESAT 2 02 Jul 18:01:21 18:05:05 35° 245° (WSW) 18:08:44 435.950
O/OREOS (USA 219) 02 Jul 18:02:18 18:06:49 65° 67° (ENE) 18:11:19 437.305
MOZHAYETS 4 02 Jul 18:26:17 18:30:25 32° 289° (WNW) 18:34:29
CUBESAT XI-V 02 Jul 18:46:33 18:50:50 35° 96° (E) 18:55:06 437.345
CUTE-I 02 Jul 18:48:32 18:53:51 69° 258° (WSW) 18:59:15 437.470
STRAND 1 02 Jul 18:50:30 18:52:42 13° 88° (E) 18:55:12 437.568
Cosmos 2504 02 Jul 18:52:06 18:59:03 37° 271° (W) 19:06:18 435.465 / 435.565
AIST 2 02 Jul 19:05:30 19:09:13 30° 246° (WSW) 19:12:49 435.215
GOMX 1 02 Jul 19:08:01 19:10:16 13° 65° (ENE) 19:12:41 467.674
BRITE-PL 02 Jul 19:18:59 19:23:37 29° 70° (ENE) 19:28:09 437.365/2234.400
JUGNU 02 Jul 19:22:34 19:23:41 10° 180° (S) 19:24:47 437.505
Cubesat XI-IV 02 Jul 19:22:45 19:27:35 33° 264° (W) 19:32:23 437.490
SO-50 02 Jul 19:33:20 19:36:09 15° 322° (NW) 19:38:52 436.795
HO-68 02 Jul 19:34:30 19:40:10 27° 62° (ENE) 19:46:01 435.675
CUSAT 1 02 Jul 19:39:16 19:41:58 78° 82° (E) 19:44:32 437.405
GONETS M04 02 Jul 19:40:33 19:47:38 28° 67° (ENE) 19:54:57
O/OREOS (USA 219) 02 Jul 19:44:20 19:45:45 11° 261° (W) 19:46:53 437.305
CUTE 1.7 + AOD 2 02 Jul 19:45:43 19:47:41 13° 66° (ENE) 19:49:51 437.475
CANX-2 02 Jul 19:48:11 19:50:40 16° 67° (ENE) 19:53:19 2200.000
PRISM 02 Jul 19:55:57 20:00:07 58° 101° (E) 20:04:13 437.425
DOVE 4 02 Jul 20:00:34 20:04:35 26° 70° (ENE) 20:08:29 437.250
CUBESAT XI-V 02 Jul 20:24:23 20:28:05 23° 292° (WNW) 20:31:41 437.345
STRAND 1 02 Jul 20:27:22 20:32:30 69° 286° (WNW) 20:37:36 437.568
DANDE 02 Jul 20:28:56 20:31:24 25° 267° (W) 20:33:37 436.750
SEEDS 02 Jul 20:35:19 20:39:10 38° 73° (ENE) 20:43:05 437.485
AUBIESAT-1 02 Jul 20:39:41 20:40:24 10° 95° (E) 20:41:25 437.475
GOMX 1 02 Jul 20:42:41 20:47:56 75° 258° (WSW) 20:52:54 467.674
AAUSAT CUBESAT 2 02 Jul 20:51:43 20:55:32 39° 73° (ENE) 20:59:26 437.432
Oscar 11 02 Jul 20:53:06 20:56:07 19° 68° (ENE) 20:59:15 145.826/435.025
BRITE-PL 02 Jul 20:56:54 21:02:02 36° 264° (W) 21:06:51 437.365/2234.400
CINEMA 3 02 Jul 21:01:11 21:05:34 48° 74° (ENE) 21:09:49 145.822/145.860
M-CUBED/EXP-1 PRIME 02 Jul 21:09:24 21:13:01 27° 102° (ESE) 21:16:53 437.505
COMPASS 1 02 Jul 21:15:39 21:19:48 89° 253° (WSW) 21:24:00 437.405
FUNcube-1 02 Jul 21:16:46 21:19:44 19° 69° (ENE) 21:22:47 145.935
Cosmos 2499 02 Jul 21:17:19 21:23:12 24° 67° (ENE) 21:29:41 435.465 / 435.565
CUTE 1.7 + AOD 2 02 Jul 21:19:07 21:23:13 51° 261° (W) 21:27:20 437.475
HO-68 02 Jul 21:20:29 21:27:31 59° 259° (WSW) 21:34:33 435.675
DELFI C3 02 Jul 21:22:04 21:25:22 26° 71° (ENE) 21:28:46 145.870
CANX-2 02 Jul 21:22:17 21:26:17 42° 262° (W) 21:30:18 2200.000
UWE-3 02 Jul 21:22:54 21:26:36 30° 71° (ENE) 21:30:18 435.000/436.395/437.385
PRISM 02 Jul 21:33:18 21:35:06 12° 295° (WNW) 21:36:42 437.425
GONETS M04 02 Jul 21:36:38 21:45:09 61° 268° (W) 21:53:37
DOVE 4 02 Jul 21:37:47 21:42:15 32° 264° (W) 21:46:27 437.250
DX 1 02 Jul 22:01:23 22:04:54 25° 69° (ENE) 22:08:30 434.975-435.025
CUBEBUG 2 02 Jul 22:03:17 22:07:38 72° 258° (WSW) 22:11:52 437.445
AUBIESAT-1 02 Jul 22:11:19 22:15:29 69° 290° (WNW) 22:19:57 437.475
SEEDS 02 Jul 22:12:27 22:15:10 16° 269° (W) 22:17:44 437.485
ZACube-1 02 Jul 22:14:26 22:18:41 89° 257° (WSW) 22:22:53 437.345
UKube-1 02 Jul 22:24:47 22:28:50 40° 72° (ENE) 22:32:55 .
ANTELSAT 02 Jul 22:26:42 22:28:07 12° 89° (E) 22:29:48 437.575/2403.000
Oscar 11 02 Jul 22:28:08 22:32:05 35° 263° (W) 22:36:02 145.826/435.025
AAUSAT CUBESAT 2 02 Jul 22:28:48 22:31:22 15° 269° (W) 22:33:47 437.432
AISAT 02 Jul 22:30:15 22:34:03 28° 70° (ENE) 22:37:54 437.250
TIGRISAT 02 Jul 22:38:59 22:41:33 16° 91° (E) 22:44:20 435.000
CINEMA 3 02 Jul 22:40:26 22:43:03 15° 269° (W) 22:45:27 145.822/145.860
M-CUBED/EXP-1 PRIME 02 Jul 22:44:12 22:47:45 27° 294° (WNW) 22:51:26 437.505
HUMSAT D 02 Jul 22:49:47 22:53:53 83° 258° (WSW) 22:58:00 437.325/437.525
FUNcube-1 02 Jul 22:52:02 22:55:53 33° 264° (W) 22:59:39 145.935
CUBEBUG 1 02 Jul 22:54:35 22:58:17 27° 70° (ENE) 23:02:03 437.445
ESTCUBE 1 02 Jul 22:54:50 22:58:50 32° 70° (ENE) 23:02:55 437.505/2401.250
DELFI C3 02 Jul 22:57:16 23:00:27 22° 266° (W) 23:03:34 145.870
UWE-3 02 Jul 22:59:52 23:03:12 21° 266° (W) 23:06:22 435.000/436.395/437.385
NANOSAT C BR1 02 Jul 23:08:04 23:09:51 13° 90° (E) 23:11:49 145.865
Cosmos 2499 02 Jul 23:09:15 23:17:01 69° 266° (W) 23:25:21 435.465 / 435.565
50 SAT 02 Jul 23:13:42 23:17:31 85° 256° (WSW) 23:21:23 437.505
DUCHIFAT 1 02 Jul 23:15:13 23:17:34 15° 91° (E) 23:20:07 145.980
UNISAT 6 02 Jul 23:16:37 23:20:47 43° 98° (E) 23:25:03 437.425
POLYITAN 1 02 Jul 23:17:26 23:20:09 17° 92° (E) 23:23:00 437.675
VELOX 1 02 Jul 23:19:26 23:23:54 87° 257° (WSW) 23:28:24 145.980
DX 1 02 Jul 23:37:12 23:41:02 28° 264° (W) 23:44:50 434.975-435.025
BUGSAT 1 02 Jul 23:40:37 23:43:26 19° 93° (E) 23:46:21 437.445
QB50P2 02 Jul 23:46:32 23:50:27 37° 97° (E) 23:54:23 145.880/145.840
POPSAT HIP 1 02 Jul 23:47:47 23:51:41 37° 98° (E) 23:55:36 437.405
ANTELSAT 03 Jul 00:01:01 00:05:20 59° 286° (WNW) 00:09:42 437.575/2403.000
UKube-1 03 Jul 00:02:15 00:05:10 17° 268° (W) 00:07:57 .
SPROUT 03 Jul 00:03:41 00:07:45 42° 73° (ENE) 00:11:51 437.525
AISAT 03 Jul 00:06:50 00:10:36 26° 265° (W) 00:14:18 437.250
TIGRISAT 03 Jul 00:14:24 00:18:33 43° 287° (WNW) 00:22:45 435.000
QB50P1 03 Jul 00:26:51 00:31:04 74° 284° (WNW) 00:35:14 145.935-145.965
PCSat 03 Jul 00:27:59 00:31:49 20° 45° (NE) 00:35:46 145.827
CUBEBUG 1 03 Jul 00:30:47 00:34:35 27° 265° (W) 00:38:20 437.445
ESTCUBE 1 03 Jul 00:32:07 00:35:46 23° 266° (W) 00:39:20 437.505/2401.250
SWISSCUBE 03 Jul 00:41:53 00:44:32 15° 64° (ENE) 00:47:23 437.505
NANOSAT C BR1 03 Jul 00:41:57 00:46:02 49° 286° (WNW) 00:50:04 145.865
SO-50 03 Jul 00:44:17 00:45:52 11° 35° (NE) 00:47:37 436.795
ITUPSAT 1 03 Jul 00:46:16 00:48:55 15° 64° (ENE) 00:51:46 437.325
DUCHIFAT 1 03 Jul 00:49:40 00:53:38 41° 287° (WNW) 00:57:33 145.980
POLYITAN 1 03 Jul 00:52:20 00:56:14 37° 288° (WNW) 01:00:05 437.675
TISAT 1 03 Jul 00:52:44 00:56:58 79° 258° (WSW) 01:01:14 437.305
UNISAT 6 03 Jul 00:54:24 00:57:18 17° 293° (WNW) 01:00:05 437.425
Cosmos 2499 03 Jul 01:07:37 01:09:07 10° 281° (W) 01:09:53 435.465 / 435.565
BUGSAT 1 03 Jul 01:15:23 01:19:00 31° 289° (WNW) 01:22:33 437.445
Oscar 19 03 Jul 01:19:21 01:21:51 14° 89° (E) 01:24:37 437.125/150
QB50P2 03 Jul 01:23:13 01:26:06 18° 293° (WNW) 01:28:52 145.880/145.840
POPSAT HIP 1 03 Jul 01:24:25 01:27:19 18° 293° (WNW) 01:30:04 437.405
Cosmos 2491 03 Jul 01:35:14 01:41:34 22° 64° (ENE) 01:48:12 435.465 / 435.565
SPROUT 03 Jul 01:41:21 01:44:04 16° 269° (W) 01:46:38 437.525
RS-15 03 Jul 01:47:08 01:56:11 34° 107° (ESE) 02:05:44 29.354- 29.394
BEESAT 03 Jul 02:01:50 02:06:37 89° 71° (ENE) 02:11:25 436.000
KKS-1 03 Jul 02:10:20 02:13:18 18° 67° (ENE) 02:16:26 437.445
PCSat 03 Jul 02:10:24 02:15:48 67° 245° (WSW) 02:21:09 145.827
YUBILEINY 03 Jul 02:12:44 02:16:31 14° 78° (ENE) 02:20:58 435.215
SWISSCUBE 03 Jul 02:17:15 02:21:57 58° 259° (W) 02:26:42 437.505
ITUPSAT 1 03 Jul 02:21:39 02:26:22 59° 259° (W) 02:31:07 437.325
SO-50 03 Jul 02:22:33 02:27:29 63° 55° (NE) 02:32:19 436.795
AIST 1 03 Jul 02:47:09 02:50:56 28° 75° (ENE) 02:54:44
Gurwin Techsat 1B 03 Jul 02:47:54 02:52:30 30° 95° (E) 02:57:10 435.225
JAS-2 03 Jul 02:52:17 02:54:13 12° 86° (E) 02:56:48 435.910
Oscar 19 03 Jul 02:56:40 03:01:45 65° 286° (WNW) 03:06:49 437.125/150
ITAMSAT 1 03 Jul 03:04:19 03:09:12 40° 98° (E) 03:14:07 435.822/435.867
STARS 03 Jul 03:05:34 03:09:43 42° 72° (ENE) 03:13:53 437.465
Cosmos 2491 03 Jul 03:30:46 03:39:32 76° 265° (W) 03:48:11 435.465 / 435.565
KKS-1 03 Jul 03:45:27 03:49:41 41° 262° (W) 03:53:54 437.445
MOZHAYETS 4 03 Jul 03:50:55 03:54:17 21° 68° (ENE) 03:57:49
RS-15 03 Jul 03:57:02 04:07:53 66° 307° (NW) 04:19:06 29.354- 29.394
YUBILEINY 03 Jul 04:03:29 04:12:09 82° 96° (E) 04:20:53 435.215
SO-50 03 Jul 04:04:36 04:07:34 15° 251° (WSW) 04:10:17 436.795
AIST 1 03 Jul 04:25:04 04:28:28 22° 271° (W) 04:31:43
Gurwin Techsat 1B 03 Jul 04:27:44 04:32:30 33° 291° (WNW) 04:37:09 435.225
JAS-2 03 Jul 04:33:35 04:40:11 77° 102° (ESE) 04:47:35 435.910
HORYU 2 03 Jul 04:37:58 04:42:19 50° 100° (E) 04:46:40 437.375
STARS 03 Jul 04:43:31 04:46:24 16° 268° (W) 04:49:06 437.465
ITAMSAT 1 03 Jul 04:44:18 04:48:31 24° 294° (WNW) 04:52:36 435.822/435.867
AO-7 03 Jul 04:55:01 05:03:17 60° 103° (ESE) 05:11:31 29.400- 29.500
MOZHAYETS 4 03 Jul 05:27:05 05:31:19 36° 264° (W) 05:35:33
Cosmos 2491 03 Jul 05:31:18 05:35:04 13° 283° (WNW) 05:38:09 435.465 / 435.565
Cosmos 2504 03 Jul 05:37:05 05:43:18 34° 88° (E) 05:49:37 435.465 / 435.565
CUBESAT XI-V 03 Jul 05:49:04 05:53:09 31° 71° (ENE) 05:57:21 437.345
Cubesat XI-IV 03 Jul 06:02:51 06:04:49 12° 87° (E) 06:07:09 437.490
YUBILEINY 03 Jul 06:03:56 06:10:13 20° 297° (WNW) 06:16:08 435.215
STRAND 1 03 Jul 06:05:08 06:08:34 19° 65° (ENE) 06:12:12 437.568
RS-15 03 Jul 06:14:30 06:23:08 24° 337° (NNW) 06:31:48 29.354- 29.394
HORYU 2 03 Jul 06:15:53 06:18:35 15° 294° (WNW) 06:21:07 437.375
JAS-2 03 Jul 06:20:12 06:24:49 20° 296° (WNW) 06:29:29 435.910
PRISM 03 Jul 06:45:04 06:48:54 37° 72° (ENE) 06:52:47 437.425
AO-7 03 Jul 06:48:31 06:55:40 32° 301° (WNW) 07:02:37 29.400- 29.500
CUSAT 1 03 Jul 07:03:20 07:06:21 14° 92° (E) 07:09:25 437.405
CUTE-I 03 Jul 07:06:37 07:11:51 52° 100° (E) 07:17:04 437.470
CUBESAT XI-V 03 Jul 07:26:41 07:30:38 25° 266° (W) 07:34:30 437.345
Cosmos 2504 03 Jul 07:29:53 07:36:36 40° 286° (WNW) 07:43:14 435.465 / 435.565
VERMONT LUNAR 03 Jul 07:39:41 07:41:42 16° 149° (SSE) 07:43:46 437.305
Cubesat XI-IV 03 Jul 07:40:15 07:45:39 77° 285° (WNW) 07:50:59 437.490
STRAND 1 03 Jul 07:42:24 07:47:25 53° 260° (W) 07:52:28 437.568
BEESAT 3 03 Jul 07:43:29 07:47:24 50° 117° (ESE) 07:51:23 437.485
BEESAT 2 03 Jul 07:53:24 07:57:22 50° 117° (ESE) 08:01:24 435.950
